Weather History for PHBK - March, 2013

Change the Weather History Date:

Wednesday, March 27, 2013

  Actual Average Record
Temperature  
Mean Temperature 76 °F -  
Max Temperature 82 °F 82 °F 84 °F (1970)
Min Temperature 68 °F 63 °F 58 °F (1958)
Cooling Degree Days 10    
Growing Degree Days 26 (Base 50)    
Moisture  
Dew Point 64 °F    
Average Humidity 72    
Maximum Humidity 93    
Minimum Humidity 44    
Precipitation  
Precipitation 0.00 in - - ()
Sea Level Pressure  
Sea Level Pressure 30.02 in    
Wind  
Wind Speed 16 mph (NNE)    
Max Wind Speed 24 mph    
Max Gust Speed 34 mph    
Visibility 10 miles    
Events Rain    
Averages and records for this station are not official NWS values.
T = Trace of Precipitation, MM = Missing Value Source: NWS Daily Summary

Daily Weather History Graph

Daily Weather History Graph

Search for Another Location

Airport or City:

Trip Planner

Search our weather history database for the weather conditions in past years. The results will help you decide how hot, cold, wet, or windy it might be!

Date:

Astronomy

Mar. 27, 2013 Rise Set
Actual Time 6:36 AM HST 6:52 PM HST
Civil Twilight 6:13 AM HST 7:15 PM HST
Nautical Twilight 5:47 AM HST 7:41 PM HST
Astronomical Twilight 5:21 AM HST 8:07 PM HST
Moon 7:37 PM HST (3/27) 6:41 AM HST (3/27)
Length of Visible Light 13h 01m
Length of Day
12h 16m
Full, 100% of the Moon is Illuminated
Mar 27
Full
Apr 2
Last Quarter
Apr 9
New
Apr 18
First Quarter
Apr 25
Full

Hourly Weather History & Observations

Time (HST) Temp. Heat Index Dew Point Humidity Pressure Visibility Wind Dir Wind Speed Gust Speed Precip Events Conditions
12:56 AM 71.1 °F - 66.9 °F 87% 30.04 in 10.0 mi NNE 24.2 mph 31.1 mph N/A   Partly Cloudy
1:56 AM 72.0 °F - 66.9 °F 84% 30.01 in 10.0 mi NNE 9.2 mph - N/A   Mostly Cloudy
2:06 AM 71.6 °F - 66.2 °F 83% 30.00 in 10.0 mi NNE 16.1 mph 21.9 mph 0.00 in Rain Light Rain
2:13 AM 71.6 °F - 66.2 °F 83% 30.00 in 10.0 mi NNE 9.2 mph 21.9 mph 0.00 in   Scattered Clouds
2:56 AM 71.1 °F - 66.0 °F 84% 30.00 in 10.0 mi Variable 5.8 mph 18.4 mph 0.00 in   Scattered Clouds
3:56 AM 71.1 °F - 66.0 °F 84% 29.99 in 10.0 mi NNE 19.6 mph 28.8 mph N/A   Mostly Cloudy
4:56 AM 71.1 °F - 64.9 °F 81% 29.99 in 10.0 mi North 23.0 mph - N/A   Overcast
5:56 AM 71.1 °F - 69.1 °F 93% 30.00 in 10.0 mi NNE 20.7 mph 34.5 mph N/A   Overcast
6:56 AM 72.0 °F - 63.0 °F 73% 30.02 in 10.0 mi NNE 12.7 mph - 0.00 in Rain Light Rain
7:56 AM 71.1 °F - 64.9 °F 81% 30.04 in 10.0 mi NNE 12.7 mph - 0.00 in Rain Light Rain
8:56 AM 73.0 °F - 64.9 °F 76% 30.05 in 10.0 mi NNE 11.5 mph - 0.00 in   Overcast
9:56 AM 75.0 °F - 64.0 °F 69% 30.05 in 10.0 mi North 20.7 mph 28.8 mph N/A   Overcast
10:56 AM 77.0 °F - 62.1 °F 60% 30.05 in 10.0 mi North 20.7 mph 28.8 mph N/A   Overcast
11:56 AM 81.0 °F 81.0 °F 57.0 °F 44% 30.03 in 10.0 mi North 21.9 mph 28.8 mph N/A   Scattered Clouds
12:56 PM 82.0 °F 82.0 °F 57.9 °F 44% 30.01 in 10.0 mi North 20.7 mph 32.2 mph N/A   Partly Cloudy
1:56 PM 79.0 °F - 61.0 °F 54% 30.00 in 10.0 mi North 24.2 mph - N/A   Scattered Clouds
2:56 PM 80.1 °F 81.1 °F 61.0 °F 52% 29.98 in 10.0 mi North 24.2 mph 31.1 mph N/A   Scattered Clouds
3:56 PM 78.1 °F - 61.0 °F 56% 29.97 in 10.0 mi North 18.4 mph 27.6 mph N/A   Mostly Cloudy
4:56 PM 77.0 °F - 62.1 °F 60% 29.97 in 10.0 mi North 20.7 mph 28.8 mph N/A   Partly Cloudy
5:56 PM 75.9 °F - 62.1 °F 62% 29.99 in 10.0 mi NNE 17.3 mph - N/A   Scattered Clouds
6:56 PM 73.9 °F - 66.0 °F 76% 30.01 in 10.0 mi NNE 15.0 mph - N/A   Partly Cloudy
7:56 PM 73.0 °F - 64.9 °F 76% 30.02 in 10.0 mi NNE 12.7 mph - N/A   Clear
8:56 PM 72.0 °F - 64.0 °F 76% 30.04 in 10.0 mi NNE 5.8 mph - N/A   Clear
9:56 PM 71.1 °F - 63.0 °F 75% 30.05 in 10.0 mi Calm Calm - N/A   Partly Cloudy
10:56 PM 69.1 °F - 62.1 °F 78% 30.06 in 10.0 mi ENE 4.6 mph - N/A   Clear
11:56 PM 68.0 °F - 63.0 °F 84% 30.05 in 10.0 mi ENE 4.6 mph - N/A   Clear